[[{"header":{"parameterUnit":"m.s-1","parameterCategory":2,"la1":30.2991,"la2":30.254,"lo1":-89.0895,"lo2":-89.0444,"dy":0.0017,"dx":0.0017,"nx":28,"ny":28,"refTime":"2026-01-01T03:00:00:Z","depth":"0","parameterNumber":2,"parameterNumberName":"U-component_of_CURRENTS"},"data":[0,0,0,0,0,0,0,0,0,0,0,0,0,0,0,0,0,0,0,0,0,0,0,0,0,0,0,0,0,0,0,0,0,0,0,0,0,0,0,0,0,0,0,0,0,0,0,0,0,0,0,0,0,0,0,0,0,0,-0.2752,-0.2752,0,-0.2795,-0.2796,-0.2796,-0.2765,-0.2764,-0.2763,-0.2762,-0.2738,-0.2739,-0.2739,0,0,0,0,0,0,0,0,0,0,0,0,0,-0.2667,-0.2668,-0.2752,-0.2752,-0.2753,-0.2795,-0.2796,-0.2796,-0.2766,-0.2764,-0.2763,-0.2761,-0.2738,-0.2739,-0.2739,0,0,0,0,0,0,0,0,0,0,0,0,0,-0.2704,-0.2668,-0.2751,-0.2745,-0.2745,-0.2795,-0.2796,-0.2796,-0.2766,-0.2764,-0.2762,-0.2761,-0.2738,-0.2739,-0.2739,-0.2777,0,0,-0.2741,-0.2741,0,0,0,0,0,0,0,0,-0.2702,-0.2707,-0.2745,-0.2745,-0.2746,-0.2775,-0.2757,-0.2787,-0.2766,-0.2755,-0.2762,-0.276,-0.2747,-0.2747,-0.2757,-0.2776,-0.2775,-0.2741,-0.2742,-0.2742,-0.2742,0,0,0,0,0,0,0,-0.2699,-0.2705,-0.2766,-0.2746,-0.2747,-0.2748,-0.2751,-0.2763,-0.2757,-0.2756,-0.2755,-0.2764,-0.2746,-0.2756,-0.2756,-0.2775,-0.2741,-0.2742,-0.2742,-0.2742,-0.2815,-0.2816,0,0,0,0,0,0,-0.27,-0.2703,-0.2765,-0.2768,-0.2722,-0.2751,-0.2755,-0.2765,-0.2758,-0.2757,-0.2765,-0.2763,-0.2756,-0.2755,-0.2755,-0.2777,-0.2742,-0.2743,-0.2743,-0.2813,-0.2815,-0.2817,0,0,0,0,0,0,-0.2698,-0.2705,-0.2763,-0.2738,-0.2746,-0.2755,-0.2767,-0.2767,-0.277,-0.2767,-0.2763,-0.2767,-0.2754,-0.2754,-0.277,-0.2777,-0.2743,-0.2743,-0.2811,-0.2814,-0.2816,-0.2837,0,0,0,0,0,0,-0.2695,-0.2704,-0.2707,-0.2738,-0.2747,-0.2796,-0.2769,-0.2769,-0.278,-0.2776,-0.2768,-0.2764,-0.2753,-0.277,-0.2771,-0.2777,-0.2744,-0.2809,-0.2812,-0.2815,-0.2834,-0.284,-0.2844,0,0,0,0,0,-0.2692,-0.2708,-0.2707,-0.2715,-0.2753,-0.2797,-0.2802,-0.2801,-0.2782,-0.2794,-0.2789,-0.2764,-0.2788,-0.2772,-0.2773,-0.2779,-0.2808,-0.2811,-0.2815,-0.2832,-0.2839,-0.2844,0,0,0,0,0,0,-0.267,-0.2708,-0.2707,-0.2732,-0.2762,-0.2793,-0.2802,-0.2805,-0.2812,-0.2802,-0.2788,-0.2786,-0.2802,-0.2799,-0.2781,-0.2812,-0.2793,-0.2797,-0.2806,-0.2812,-0.2817,-0.2803,-0.2744,0,0,0,0,0,-0.2669,-0.2686,-0.2727,-0.2743,-0.2761,-0.2781,-0.2796,-0.2802,-0.2817,-0.2818,-0.2814,-0.2814,-0.2822,-0.2821,-0.2831,-0.2852,-0.2827,-0.2858,-0.2862,-0.2866,-0.2859,-0.2841,-0.2842,-0.2828,-0.2828,-0.2828,0,0,-0.2661,-0.2686,-0.2693,-0.2739,-0.2758,-0.2794,-0.2785,-0.2814,-0.2835,-0.2816,-0.2832,-0.2834,-0.2835,-0.2854,-0.2861,-0.2847,-0.286,-0.2871,-0.2874,-0.2864,-0.2844,-0.2845,-0.2846,-0.283,-0.283,-0.2829,0,0,-0.2667,-0.2682,-0.2703,-0.2737,-0.2778,-0.2799,-0.2809,-0.2846,-0.2849,-0.2881,-0.2867,-0.2872,-0.2892,-0.2888,-0.2889,-0.2932,-0.289,-0.2938,-0.2943,-0.2926,-0.2926,-0.2926,-0.2894,-0.2891,-0.2935,-0.2935,-0.2935,0,-0.2655,-0.2688,-0.2716,-0.2755,-0.2777,-0.2802,-0.2835,-0.2857,-0.2891,-0.2895,-0.2887,-0.2906,-0.2905,-0.2916,-0.2929,-0.2939,-0.2917,-0.2916,-0.2929,-0.2929,-0.2928,-0.2895,-0.2891,-0.2936,-0.2936,-0.2936,-0.2936,0,-0.2684,-0.2712,-0.273,-0.2781,-0.2814,-0.2846,-0.2888,-0.291,-0.2915,-0.2929,-0.2944,-0.2947,-0.2949,-0.2957,-0.2954,-0.2955,-0.2938,-0.2938,-0.2905,-0.293,-0.2895,-0.289,-0.2938,-0.2938,-0.2937,-0.2937,0,0,-0.2644,-0.2732,-0.2734,-0.276,-0.2828,-0.2856,-0.2898,-0.2936,-0.2946,-0.297,-0.2972,-0.2992,-0.298,-0.2981,-0.2976,-0.2962,-0.2941,-0.2947,-0.2945,-0.2899,-0.2888,-0.2775,-0.2759,-0.2939,-0.2939,-0.2938,-0.2863,0,-0.265,-0.2714,-0.276,-0.2811,-0.2844,-0.2888,-0.2923,-0.296,-0.2978,-0.299,-0.2988,-0.2995,-0.2994,-0.2988,-0.2977,-0.2954,-0.293,-0.296,-0.2885,-0.2882,-0.2766,-0.2751,-0.2618,-0.2532,-0.2859,-0.2858,-0.2857,0,-0.2651,-0.2697,-0.2747,-0.2819,-0.2836,-0.287,-0.2912,-0.2951,-0.2984,-0.2995,-0.3,-0.3,-0.2992,-0.2983,-0.2941,-0.2959,-0.2922,-0.2899,-0.2896,-0.2776,-0.276,-0.2563,-0.251,-0.2497,-0.285,-0.285,-0.2851,0,-0.2588,-0.2678,-0.271,-0.2738,-0.283,-0.2848,-0.2889,-0.2937,-0.2959,-0.2988,-0.2992,-0.2993,-0.2978,-0.2949,-0.2906,-0.2922,-0.2842,-0.2859,-0.272,-0.2712,-0.2575,-0.2554,-0.2482,-0.2814,-0.2814,-0.2814,-0.2815,0,-0.2564,-0.2586,-0.2681,-0.27,-0.2725,-0.2809,-0.2832,-0.2873,-0.2925,-0.2938,-0.2978,-0.2966,-0.2967,-0.2928,-0.2895,-0.2777,-0.283,-0.2702,-0.2678,-0.2579,-0.2561,-0.2524,-0.257,-0.2811,-0.2812,-0.2813,-0.2813,0,-0.2472,-0.2545,-0.2579,-0.2671,-0.2692,-0.2703,-0.2786,-0.2808,-0.2874,-0.2888,-0.2896,-0.2931,-0.287,-0.2847,-0.2787,-0.2737,-0.2604,-0.2605,-0.2478,-0.2439,-0.2281,-0.2334,-0.2254,-0.2189,-0.243,-0.2427,-0.2424,0,-0.2425,-0.2434,-0.2518,-0.253,-0.2564,-0.2608,-0.2638,-0.2746,-0.2781,-0.2852,-0.2847,-0.2817,-0.2735,-0.2604,-0.2521,-0.2407,-0.2456,-0.2248,-0.2249,-0.2228,-0.2273,-0.2338,-0.2295,-0.2084,-0.2079,-0.2074,-0.2071,0,-0.2312,-0.2339,-0.2366,-0.2394,-0.2426,-0.2462,-0.2524,-0.2536,-0.2662,-0.2642,-0.2599,-0.2533,-0.2463,-0.2276,-0.2179,-0.2113,-0.2191,-0.2151,-0.2166,-0.2011,-0.2041,-0.1981,-0.2187,-0.2032,-0.2035,-0.2038,-0.204,-0.2042,-0.2196,-0.2179,-0.2213,-0.2221,-0.2261,-0.2261,-0.2193,-0.2244,-0.2199,-0.2075,-0.2263,-0.2041,-0.212,-0.1924,-0.1864,-0.1755,-0.1868,-0.1719,-0.179,-0.1861,-0.1778,-0.1882,-0.1681,-0.1683,-0.1684,-0.1686,-0.1687,0,-0.2033,-0.2033,-0.2039,-0.2035,-0.1998,-0.2075,-0.2066,-0.1938,-0.1744,-0.1646,-0.1527,-0.1522,-0.1452,-0.1513,-0.1517,-0.1441,-0.1436,-0.1435,-0.1513,-0.1489,-0.1585,-0.1547,-0.1262,-0.1262,-0.1262,-0.1262,-0.1262,-0.1262,-0.1949,-0.1888,-0.1893,-0.1763,-0.1746,-0.1598,-0.1517,-0.132,-0.1173,-0.0841,-0.0699,-0.0688,-0.1061,-0.1442,-0.1434,-0.1353,-0.1364,-0.1308,-0.1378,-0.1477,-0.1511,-0.1543,-0.1516,-0.1229,-0.1229,-0.1201,-0.1201,-0.1201]},{"header":{"parameterUnit":"m.s-1","parameterCategory":2,"la1":30.2991,"la2":30.254,"lo1":-89.0895,"lo2":-89.0444,"dy":0.0017,"dx":0.0017,"nx":28,"ny":28,"refTime":"2026-01-01T03:00:00:Z","depth":"0","parameterNumber":3,"parameterNumberName":"V-component_of_CURRENTS"},"data":[0,0,0,0,0,0,0,0,0,0,0,0,0,0,0,0,0,0,0,0,0,0,0,0,0,0,0,0,0,0,0,0,0,0,0,0,0,0,0,0,0,0,0,0,0,0,0,0,0,0,0,0,0,0,0,0,0,0,-0.0195,-0.0194,0,-0.0087,-0.0086,-0.0084,-0.001,-0.001,-0.0009,-0.0009,0.0144,0.0147,0.0151,0,0,0,0,0,0,0,0,0,0,0,0,0,-0.0273,-0.0272,-0.0195,-0.0194,-0.0193,-0.0087,-0.0086,-0.0084,-0.001,-0.001,-0.0009,-0.0009,0.0142,0.0147,0.0151,0,0,0,0,0,0,0,0,0,0,0,0,0,-0.0208,-0.0272,-0.0195,-0.0144,-0.0139,-0.0087,-0.0085,-0.0083,-0.001,-0.001,-0.0009,-0.0008,0.0141,0.0146,0.0152,0.0173,0,0,0.0169,0.0171,0,0,0,0,0,0,0,0,-0.0212,-0.0205,-0.0153,-0.0148,-0.0141,-0.0062,-0.0057,0.0004,-0.0011,-0.0058,-0.0009,-0.0008,0.0078,0.0088,0.0108,0.018,0.0186,0.0169,0.0172,0.0175,0.0176,0,0,0,0,0,0,0,-0.0217,-0.0209,-0.0151,-0.0152,-0.0145,-0.0104,-0.0095,-0.0045,0.0007,-0.0054,-0.0048,-0.0038,0.0081,0.0103,0.0113,0.0189,0.0169,0.0174,0.0177,0.0179,0.0311,0.0312,0,0,0,0,0,0,-0.0237,-0.0214,-0.0155,-0.0148,-0.0177,-0.0104,-0.0093,-0.0087,0.0005,0.0019,-0.0039,-0.0035,0.0093,0.0106,0.0118,0.0147,0.0175,0.018,0.0183,0.0311,0.0311,0.0312,0,0,0,0,0,0,-0.0239,-0.0233,-0.0159,-0.0179,-0.0167,-0.0104,-0.0097,-0.0086,-0.0064,0.0016,0.0031,-0.003,0.0094,0.0111,0.0161,0.0154,0.0182,0.0187,0.0311,0.0311,0.0312,0.0206,0,0,0,0,0,0,-0.0242,-0.0234,-0.0239,-0.0181,-0.0167,-0.0139,-0.0098,-0.0084,-0.006,-0.0054,0.0029,0.0044,0.0096,0.0152,0.0166,0.0162,0.0192,0.0311,0.0311,0.0311,0.0209,0.0203,0.0197,0,0,0,0,0,-0.0245,-0.0258,-0.024,-0.0233,-0.0175,-0.014,-0.0129,-0.008,-0.006,-0.0057,0.0001,0.0041,0.0165,0.0156,0.0173,0.017,0.031,0.0311,0.0311,0.0212,0.0204,0.0197,0,0,0,0,0,0,-0.0293,-0.0249,-0.0229,-0.0228,-0.0191,-0.0128,-0.0122,-0.0088,-0.004,-0.0034,0.0042,0.0061,0.0102,0.0153,0.0142,0.0212,0.0245,0.0249,0.0164,0.0157,0.0151,0.013,0.0196,0,0,0,0,0,-0.0308,-0.0306,-0.0255,-0.0254,-0.0241,-0.0183,-0.0164,-0.0132,-0.0081,-0.0059,-0.0001,0.0064,0.0117,0.0149,0.0203,0.0239,0.0293,0.0251,0.0245,0.0239,0.0235,0.0301,0.03,0.0313,0.0313,0.0313,0,0,-0.0325,-0.0302,-0.03,-0.0265,-0.0232,-0.0223,-0.017,-0.0148,-0.0136,-0.005,-0.0018,0.0042,0.0122,0.0162,0.0186,0.0203,0.0266,0.024,0.0234,0.0233,0.0302,0.03,0.0299,0.0314,0.0313,0.0313,0,0,-0.0367,-0.0342,-0.0357,-0.0333,-0.0295,-0.0257,-0.0257,-0.0199,-0.0169,-0.0131,-0.0066,-0.0013,0.0069,0.0124,0.0163,0.0158,0.0228,0.0178,0.0132,0.0196,0.0195,0.0195,0.0262,0.0269,0.0177,0.0177,0.0177,0,-0.0393,-0.0402,-0.0355,-0.0363,-0.0351,-0.0281,-0.0293,-0.0252,-0.0185,-0.0162,-0.0135,-0.0011,0.0051,0.0107,0.0106,0.0143,0.0192,0.0147,0.0186,0.0187,0.0188,0.0258,0.0266,0.0172,0.0173,0.0173,0.0174,0,-0.0443,-0.045,-0.0457,-0.0444,-0.0423,-0.0422,-0.0364,-0.0338,-0.0293,-0.0245,-0.0182,-0.0092,-0.0017,0.0011,0.0057,0.01,0.0137,0.0164,0.0195,0.018,0.0255,0.0266,0.0165,0.0167,0.0168,0.017,0,0,-0.0502,-0.0497,-0.0499,-0.0513,-0.0469,-0.046,-0.0439,-0.0398,-0.0382,-0.0307,-0.0276,-0.0181,-0.0124,-0.0076,-0.0004,0.0051,0.0104,0.0103,0.0109,0.0154,0.025,0.0311,0.0329,0.0135,0.0136,0.0137,0.0297,0,-0.0557,-0.0605,-0.0575,-0.0608,-0.0627,-0.056,-0.0546,-0.0496,-0.0433,-0.0383,-0.0281,-0.0221,-0.0158,-0.012,-0.0057,0.0067,0.0128,0.0059,0.0273,0.0279,0.0322,0.0342,0.0402,0.0553,0.0308,0.031,0.0311,0,-0.0617,-0.0643,-0.0696,-0.07,-0.0699,-0.0699,-0.0661,-0.0636,-0.0542,-0.0491,-0.0408,-0.0316,-0.0214,-0.0162,0.0034,-0.0013,0.0105,0.02,0.0209,0.031,0.036,0.0532,0.0583,0.0759,0.0329,0.0328,0.0326,0,-0.0697,-0.0724,-0.0774,-0.0776,-0.0765,-0.0768,-0.0749,-0.0674,-0.0648,-0.0552,-0.0512,-0.0378,-0.0292,-0.0145,0.0064,0.0049,0.0285,0.0294,0.0463,0.0469,0.0586,0.06,0.082,0.0427,0.0426,0.0426,0.0426,0,-0.0773,-0.0809,-0.0818,-0.0848,-0.0894,-0.0849,-0.0862,-0.0817,-0.0742,-0.0689,-0.0573,-0.0483,-0.0283,-0.0114,0.005,0.0302,0.0284,0.0464,0.0517,0.0552,0.056,0.0772,0.0825,0.0432,0.0431,0.0429,0.0428,0,-0.085,-0.0857,-0.0917,-0.0932,-0.0938,-0.0968,-0.0947,-0.0946,-0.0858,-0.0781,-0.0749,-0.0552,-0.0318,-0.0108,0.0163,0.0305,0.0648,0.0614,0.0644,0.0696,0.0992,0.1035,0.1299,0.1421,0.0815,0.0818,0.082,0,-0.0895,-0.0937,-0.0991,-0.1031,-0.1042,-0.1071,-0.1087,-0.1019,-0.0989,-0.0793,-0.0752,-0.0517,-0.0296,0.0103,0.037,0.0667,0.0793,0.0889,0.0868,0.1031,0.1119,0.1143,0.1228,0.0989,0.0993,0.0995,0.0998,0,-0.0974,-0.0991,-0.104,-0.113,-0.117,-0.12,-0.1195,-0.1164,-0.1033,-0.0872,-0.0605,-0.0406,-0.0066,0.0312,0.0637,0.0814,0.1028,0.0953,0.1128,0.128,0.1319,0.1453,0.0857,0.1022,0.1019,0.1018,0.1016,0.1015,-0.1017,-0.1074,-0.1138,-0.1213,-0.1265,-0.1265,-0.1207,-0.1113,-0.0938,-0.0596,-0.0436,-0.0004,0.0323,0.0802,0.0977,0.1316,0.1256,0.1449,0.1491,0.1504,0.1615,0.1068,0.128,0.1279,0.1278,0.1278,0.1277,0,-0.1059,-0.1121,-0.1212,-0.127,-0.1304,-0.131,-0.1227,-0.1073,-0.0749,-0.0431,-0.0044,0.0589,0.0979,0.124,0.1622,0.1847,0.1887,0.1955,0.2015,0.2079,0.162,0.162,0.191,0.1909,0.1909,0.1909,0.1909,0.1909,-0.1082,-0.1172,-0.1221,-0.1274,-0.1288,-0.1193,-0.1085,-0.0801,-0.0521,0.0112,0.0586,0.0922,0.1296,0.1898,0.2281,0.2322,0.2527,0.2499,0.2605,0.2286,0.2241,0.2199,0.2216,0.2625,0.2626,0.3073,0.3077,0.308]}],[{"header":{"parameterUnit":"m.s-1","parameterCategory":2,"la1":30.2991,"la2":30.254,"lo1":-89.0895,"lo2":-89.0444,"dy":0.0017,"dx":0.0017,"nx":28,"ny":28,"refTime":"2026-01-01T03:00:00:Z","depth":"2","parameterNumber":2,"parameterNumberName":"U-component_of_CURRENTS"},"data":[0,0,0,0,0,0,0,0,0,0,0,0,0,0,0,0,0,0,0,0,0,0,0,0,0,0,0,0,0,0,0,0,0,0,0,0,0,0,0,0,0,0,0,0,0,0,0,0,0,0,0,0,0,0,0,0,0,0,-0.2614,-0.2615,0,-0.2661,-0.2662,-0.2662,-0.2642,-0.2641,-0.264,-0.264,-0.263,-0.2631,-0.2632,0,0,0,0,0,0,0,0,0,0,0,0,0,-0.2524,-0.2526,-0.2614,-0.2615,-0.2616,-0.2661,-0.2662,-0.2662,-0.2643,-0.2641,-0.264,-0.2639,-0.263,-0.2631,-0.2632,0,0,0,0,0,0,0,0,0,0,0,0,0,-0.2564,-0.2526,-0.2614,-0.2613,-0.2613,-0.2661,-0.2662,-0.2662,-0.2643,-0.2641,-0.264,-0.2639,-0.263,-0.2631,-0.2632,-0.2665,0,0,-0.2635,-0.2635,0,0,0,0,0,0,0,0,-0.2562,-0.2567,-0.2612,-0.2613,-0.2614,-0.2646,-0.2627,-0.2661,-0.2643,-0.2629,-0.264,-0.2638,-0.2633,-0.2634,-0.2643,-0.2665,-0.2664,-0.2635,-0.2635,-0.2636,-0.2636,0,0,0,0,0,0,0,-0.2559,-0.2565,-0.263,-0.2613,-0.2614,-0.2616,-0.262,-0.2634,-0.2636,-0.263,-0.263,-0.2639,-0.2632,-0.2642,-0.2643,-0.2664,-0.2635,-0.2635,-0.2636,-0.2636,-0.2713,-0.2714,0,0,0,0,0,0,-0.2559,-0.2563,-0.2629,-0.2632,-0.2587,-0.2619,-0.2623,-0.2636,-0.2637,-0.2637,-0.264,-0.2638,-0.2642,-0.2642,-0.2642,-0.2672,-0.2636,-0.2636,-0.2637,-0.2711,-0.2713,-0.2714,0,0,0,0,0,0,-0.2557,-0.2565,-0.2627,-0.26,-0.2608,-0.2622,-0.2636,-0.2637,-0.2645,-0.2645,-0.2643,-0.2646,-0.264,-0.2641,-0.2662,-0.2672,-0.2637,-0.2638,-0.2709,-0.2712,-0.2714,-0.2738,0,0,0,0,0,0,-0.2554,-0.2564,-0.257,-0.26,-0.261,-0.2659,-0.2638,-0.2639,-0.2654,-0.2651,-0.265,-0.2648,-0.2639,-0.2661,-0.2663,-0.2672,-0.2638,-0.2707,-0.271,-0.2713,-0.2735,-0.2741,-0.2745,0,0,0,0,0,-0.2551,-0.2568,-0.257,-0.2578,-0.2619,-0.2661,-0.2666,-0.2669,-0.2655,-0.2668,-0.2668,-0.2647,-0.2679,-0.2663,-0.2665,-0.2675,-0.2706,-0.271,-0.2713,-0.2733,-0.274,-0.2745,0,0,0,0,0,0,-0.253,-0.2569,-0.2571,-0.2597,-0.2628,-0.2658,-0.2669,-0.2675,-0.2687,-0.2679,-0.267,-0.267,-0.2691,-0.2689,-0.2671,-0.2708,-0.2688,-0.2692,-0.2703,-0.2709,-0.2714,-0.2704,-0.2639,0,0,0,0,0,-0.253,-0.255,-0.259,-0.2608,-0.2626,-0.2648,-0.2663,-0.2672,-0.269,-0.2693,-0.2694,-0.2698,-0.271,-0.2712,-0.2725,-0.2748,-0.2725,-0.2756,-0.2761,-0.2765,-0.2761,-0.2748,-0.2751,-0.2725,-0.2725,-0.2725,0,0,-0.2524,-0.255,-0.2559,-0.2605,-0.2624,-0.266,-0.2653,-0.2684,-0.2707,-0.2691,-0.2715,-0.2719,-0.2723,-0.2747,-0.2755,-0.2741,-0.2761,-0.2769,-0.2773,-0.2766,-0.2752,-0.2754,-0.2756,-0.2728,-0.2727,-0.2727,0,0,-0.2531,-0.2549,-0.2571,-0.2604,-0.2646,-0.2667,-0.2678,-0.2716,-0.2723,-0.2758,-0.2749,-0.2759,-0.2783,-0.2783,-0.2786,-0.2829,-0.2792,-0.2836,-0.2846,-0.2835,-0.2836,-0.2836,-0.2803,-0.28,-0.2833,-0.2833,-0.2833,0,-0.2522,-0.2557,-0.2584,-0.2621,-0.2645,-0.2671,-0.2704,-0.2729,-0.2766,-0.2774,-0.2768,-0.2797,-0.2798,-0.2816,-0.2829,-0.2837,-0.2818,-0.2818,-0.2838,-0.2839,-0.2839,-0.2804,-0.2801,-0.2835,-0.2835,-0.2835,-0.2834,0,-0.255,-0.2581,-0.2599,-0.265,-0.2683,-0.2717,-0.2759,-0.2785,-0.2796,-0.2813,-0.2836,-0.2842,-0.2851,-0.2859,-0.2856,-0.2865,-0.2845,-0.2847,-0.2815,-0.2842,-0.2805,-0.2801,-0.2837,-0.2837,-0.2836,-0.2836,0,0,-0.2515,-0.2601,-0.2605,-0.2633,-0.27,-0.2729,-0.2774,-0.2817,-0.2834,-0.2862,-0.2873,-0.2897,-0.2888,-0.2892,-0.2888,-0.2879,-0.2862,-0.2863,-0.2862,-0.2816,-0.2818,-0.2713,-0.2699,-0.2865,-0.2865,-0.2864,-0.2787,0,-0.2523,-0.2588,-0.2632,-0.2686,-0.2721,-0.2766,-0.2805,-0.2846,-0.2869,-0.289,-0.2893,-0.2908,-0.2905,-0.2903,-0.2897,-0.2877,-0.2856,-0.2882,-0.2811,-0.2808,-0.27,-0.2692,-0.2497,-0.2404,-0.2783,-0.2782,-0.2782,0,-0.2526,-0.2572,-0.2627,-0.2702,-0.272,-0.2756,-0.2808,-0.2849,-0.289,-0.2906,-0.2918,-0.2922,-0.2919,-0.291,-0.2875,-0.2891,-0.2854,-0.2832,-0.2829,-0.2717,-0.2696,-0.2442,-0.2382,-0.2775,-0.2776,-0.2776,-0.2777,0,-0.2471,-0.2561,-0.2598,-0.2627,-0.272,-0.2744,-0.2788,-0.2843,-0.2869,-0.2906,-0.2915,-0.2924,-0.2912,-0.2888,-0.2844,-0.2859,-0.2787,-0.2802,-0.2669,-0.2661,-0.2472,-0.2447,-0.2763,-0.2763,-0.2764,-0.2764,-0.2764,0,-0.2452,-0.2479,-0.2575,-0.2596,-0.2632,-0.2713,-0.2746,-0.2791,-0.2847,-0.2865,-0.2908,-0.2901,-0.2906,-0.287,-0.2836,-0.2725,-0.2777,-0.2655,-0.2631,-0.2475,-0.2453,-0.2764,-0.2765,-0.2761,-0.2762,-0.2762,-0.2763,0,-0.2371,-0.2443,-0.2484,-0.258,-0.2604,-0.2623,-0.271,-0.2734,-0.2805,-0.2825,-0.2835,-0.287,-0.2814,-0.2794,-0.2738,-0.269,-0.2616,-0.2564,-0.2369,-0.2322,-0.25,-0.2504,-0.2407,-0.2402,-0.2398,-0.2395,-0.2393,0,-0.2332,-0.2347,-0.2436,-0.2452,-0.2489,-0.2541,-0.2572,-0.268,-0.2713,-0.2789,-0.2783,-0.276,-0.2687,-0.2566,-0.2476,-0.2366,-0.2483,-0.2153,-0.2149,-0.2475,-0.2463,-0.2472,-0.2481,-0.1907,-0.1901,-0.1896,-0.1892,0,-0.2235,-0.2266,-0.2297,-0.2331,-0.2366,-0.2408,-0.247,-0.2492,-0.2612,-0.2643,-0.2631,-0.2576,-0.2452,-0.2233,-0.2113,-0.2042,-0.2159,-0.2042,-0.2418,-0.2035,-0.2,-0.199,-0.2015,-0.1845,-0.185,-0.1853,-0.1856,-0.1857,-0.2135,-0.2126,-0.2164,-0.2176,-0.2218,-0.2233,-0.2203,-0.2304,-0.2327,-0.2336,-0.2409,-0.2269,-0.2182,-0.1867,-0.1746,-0.1665,-0.1819,-0.1761,-0.1779,-0.1802,-0.1765,-0.1726,-0.1512,-0.1514,-0.1516,-0.1518,-0.152,0,-0.1995,-0.1998,-0.2005,-0.2006,-0.1969,-0.2057,-0.209,-0.2029,-0.2003,-0.2079,-0.205,-0.1773,-0.1597,-0.1521,-0.1304,-0.1255,-0.1264,-0.1219,-0.1239,-0.1284,-0.1325,-0.1267,-0.0879,-0.0878,-0.0876,-0.0874,0,0,-0.1922,-0.187,-0.1871,-0.1746,-0.174,-0.1629,-0.1605,-0.1575,-0.1576,-0.1523,-0.1487,-0.1577,-0.1499,-0.1219,-0.1123,-0.0967,-0.1128,-0.0917,-0.1428,-0.1498,-0.1538,-0.1626,-0.1585,0,0,0,0,0]},{"header":{"parameterUnit":"m.s-1","parameterCategory":2,"la1":30.2991,"la2":30.254,"lo1":-89.0895,"lo2":-89.0444,"dy":0.0017,"dx":0.0017,"nx":28,"ny":28,"refTime":"2026-01-01T03:00:00:Z","depth":"2","parameterNumber":3,"parameterNumberName":"V-component_of_CURRENTS"},"data":[0,0,0,0,0,0,0,0,0,0,0,0,0,0,0,0,0,0,0,0,0,0,0,0,0,0,0,0,0,0,0,0,0,0,0,0,0,0,0,0,0,0,0,0,0,0,0,0,0,0,0,0,0,0,0,0,0,0,-0.0254,-0.0253,0,-0.0157,-0.0156,-0.0155,-0.0086,-0.0085,-0.0085,-0.0084,0.0052,0.0055,0.0059,0,0,0,0,0,0,0,0,0,0,0,0,0,-0.0325,-0.0325,-0.0254,-0.0253,-0.0252,-0.0158,-0.0156,-0.0155,-0.0086,-0.0085,-0.0085,-0.0084,0.0051,0.0055,0.0059,0,0,0,0,0,0,0,0,0,0,0,0,0,-0.0267,-0.0324,-0.0255,-0.0207,-0.0202,-0.0158,-0.0156,-0.0154,-0.0086,-0.0085,-0.0084,-0.0084,0.005,0.0055,0.0059,0.0075,0,0,0.0074,0.0076,0,0,0,0,0,0,0,0,-0.0271,-0.0265,-0.0215,-0.021,-0.0204,-0.0134,-0.0131,-0.0076,-0.0086,-0.0129,-0.0084,-0.0083,-0.0007,0.0002,0.002,0.0081,0.0087,0.0075,0.0077,0.008,0.0081,0,0,0,0,0,0,0,-0.0275,-0.0268,-0.0215,-0.0214,-0.0208,-0.0172,-0.0163,-0.012,-0.0072,-0.0125,-0.012,-0.0111,-0.0004,0.0015,0.0024,0.0089,0.0074,0.0079,0.0082,0.0083,0.0191,0.0191,0,0,0,0,0,0,-0.0293,-0.0272,-0.0218,-0.0212,-0.0238,-0.0172,-0.0162,-0.0156,-0.0073,-0.006,-0.0112,-0.0108,0.0006,0.0018,0.0029,0.0057,0.0079,0.0084,0.0087,0.0191,0.0191,0.0191,0,0,0,0,0,0,-0.0295,-0.0289,-0.0222,-0.024,-0.023,-0.0172,-0.0166,-0.0155,-0.0135,-0.0063,-0.0049,-0.0104,0.0007,0.0022,0.0064,0.0062,0.0086,0.009,0.0191,0.0191,0.0191,0.011,0,0,0,0,0,0,-0.0297,-0.029,-0.0294,-0.0242,-0.0229,-0.0206,-0.0166,-0.0153,-0.0131,-0.0126,-0.0052,-0.0038,0.0009,0.0057,0.0069,0.0069,0.0094,0.0191,0.0191,0.0191,0.0112,0.0107,0.0102,0,0,0,0,0,-0.03,-0.0312,-0.0295,-0.0289,-0.0236,-0.0207,-0.0197,-0.0152,-0.0132,-0.0131,-0.0078,-0.0041,0.0065,0.006,0.0075,0.0077,0.0191,0.0191,0.0191,0.0115,0.0108,0.0102,0,0,0,0,0,0,-0.0345,-0.0305,-0.0285,-0.0284,-0.0252,-0.0196,-0.0191,-0.016,-0.0118,-0.0111,-0.0042,-0.0026,0.001,0.0054,0.0046,0.0108,0.0135,0.0138,0.0072,0.0067,0.0062,0.0046,0.0098,0,0,0,0,0,-0.0359,-0.0357,-0.0311,-0.0311,-0.0299,-0.0246,-0.0229,-0.02,-0.0155,-0.0135,-0.0083,-0.0026,0.0021,0.0051,0.0096,0.0129,0.0178,0.0141,0.0136,0.0131,0.0129,0.0197,0.0198,0.0191,0.0191,0.0191,0,0,-0.0376,-0.0354,-0.0352,-0.032,-0.0291,-0.0282,-0.0234,-0.0216,-0.0203,-0.0127,-0.0097,-0.0046,0.0024,0.006,0.0081,0.0098,0.0158,0.0131,0.0126,0.0127,0.0197,0.0198,0.0199,0.0191,0.0191,0.0191,0,0,-0.0414,-0.0391,-0.0404,-0.0383,-0.0349,-0.0314,-0.0314,-0.0262,-0.0234,-0.0201,-0.0143,-0.0093,-0.0025,0.003,0.0066,0.0061,0.0124,0.0074,0.0043,0.0108,0.0109,0.0111,0.0167,0.0174,0.0077,0.0077,0.0077,0,-0.0438,-0.0445,-0.0403,-0.0409,-0.0397,-0.0335,-0.0344,-0.0307,-0.0248,-0.0223,-0.0204,-0.0092,-0.0037,0.0023,0.002,0.0049,0.0092,0.0057,0.0101,0.0103,0.0106,0.0164,0.0173,0.0073,0.0073,0.0074,0.0074,0,-0.0483,-0.0487,-0.0494,-0.0479,-0.0461,-0.0459,-0.0405,-0.0381,-0.034,-0.0294,-0.0233,-0.0154,-0.0083,-0.006,-0.0021,0.0029,0.0053,0.008,0.0112,0.0102,0.0163,0.0174,0.0067,0.0069,0.007,0.0071,0,0,-0.0538,-0.053,-0.0531,-0.0538,-0.0498,-0.0489,-0.0467,-0.0424,-0.0403,-0.0337,-0.03,-0.0215,-0.0164,-0.012,-0.0056,0.0,0.0055,0.004,0.0045,0.0087,0.0194,0.0224,0.024,0.0087,0.0088,0.009,0.0225,0,-0.0586,-0.0624,-0.0595,-0.0619,-0.0632,-0.0569,-0.0553,-0.0503,-0.0444,-0.0392,-0.0296,-0.0239,-0.0187,-0.0152,-0.0088,0.0019,0.008,0.0015,0.0205,0.0211,0.0232,0.0252,0.0226,0.0346,0.0236,0.0238,0.024,0,-0.0639,-0.0658,-0.0699,-0.0691,-0.0689,-0.0688,-0.0642,-0.0616,-0.0523,-0.0475,-0.0392,-0.031,-0.0211,-0.017,0.001,-0.0035,0.0069,0.0152,0.016,0.0225,0.0262,0.0341,0.037,0.0258,0.0257,0.0256,0.0254,0,-0.0708,-0.0725,-0.0763,-0.0762,-0.0744,-0.0742,-0.0722,-0.0646,-0.0617,-0.0521,-0.0483,-0.0352,-0.0278,-0.0139,0.0036,0.0026,0.0234,0.0248,0.0377,0.038,0.0415,0.0419,0.0377,0.0377,0.0377,0.0376,0.0376,0,-0.0773,-0.08,-0.0802,-0.0825,-0.0859,-0.0813,-0.0817,-0.0771,-0.0694,-0.0649,-0.0532,-0.0454,-0.0266,-0.0118,0.0028,0.0239,0.0238,0.0378,0.0422,0.0385,0.0385,0.0354,0.0349,0.0381,0.038,0.0379,0.0378,0,-0.0843,-0.0844,-0.089,-0.0895,-0.0898,-0.0922,-0.0894,-0.0885,-0.0802,-0.0736,-0.0705,-0.0523,-0.0323,-0.013,0.0114,0.0236,0.0427,0.0503,0.0441,0.0475,0.0528,0.0517,0.0656,0.0659,0.066,0.0662,0.0663,0,-0.0882,-0.0916,-0.0957,-0.0992,-0.0999,-0.1019,-0.1028,-0.0956,-0.0927,-0.076,-0.0728,-0.0522,-0.0351,0.0002,0.0246,0.0507,0.0503,0.0629,0.0608,0.053,0.0559,0.0546,0.0533,0.0623,0.0624,0.0625,0.0625,0,-0.0953,-0.0967,-0.1006,-0.1086,-0.1118,-0.1145,-0.1139,-0.1132,-0.1015,-0.0923,-0.0744,-0.0589,-0.0233,0.0064,0.0385,0.0533,0.0579,0.0654,0.0615,0.0547,0.0508,0.0532,0.052,0.0632,0.0631,0.0631,0.063,0.063,-0.0996,-0.1046,-0.1101,-0.1169,-0.1215,-0.1249,-0.1261,-0.1215,-0.1146,-0.0978,-0.0799,-0.0533,-0.0223,0.0238,0.0477,0.0685,0.0682,0.0734,0.0728,0.0722,0.0685,0.065,0.0794,0.0794,0.0795,0.0795,0.0795,0,-0.1042,-0.1098,-0.1177,-0.1252,-0.1308,-0.1311,-0.1313,-0.1274,-0.1186,-0.0987,-0.0791,-0.0423,-0.0083,0.0229,0.0576,0.0783,0.0756,0.0805,0.0732,0.0725,0.0719,0.0678,0.0788,0.0788,0.0789,0.0789,0,0,-0.1068,-0.1152,-0.1195,-0.1302,-0.1354,-0.1389,-0.1388,-0.1303,-0.1152,-0.0937,-0.0723,-0.0471,-0.0051,0.0184,0.0451,0.0635,0.0621,0.0644,0.0631,0.0509,0.05,0.0664,0.0591,0,0,0,0,0]}],[{"header":{"parameterUnit":"m.s-1","parameterCategory":2,"la1":30.2991,"la2":30.254,"lo1":-89.0895,"lo2":-89.0444,"dy":0.0017,"dx":0.0017,"nx":28,"ny":28,"refTime":"2026-01-01T03:00:00:Z","depth":"4","parameterNumber":2,"parameterNumberName":"U-component_of_CURRENTS"},"data":[0,0,0,0,0,0,0,0,0,0,0,0,0,0,0,0,0,0,0,0,0,0,0,0,0,0,0,0,0,0,0,0,0,0,0,0,0,0,0,0,0,0,0,0,0,0,0,0,0,0,0,0,0,0,0,0,0,0,-0.1905,-0.1906,0,-0.1991,-0.1992,-0.1993,-0.2042,-0.2042,-0.2042,-0.2043,-0.2116,-0.2117,-0.2119,0,0,0,0,0,0,0,0,0,0,0,0,0,-0.1782,-0.1784,-0.1905,-0.1906,-0.1908,-0.1991,-0.1992,-0.1993,-0.2042,-0.2042,-0.2042,-0.2043,-0.2115,-0.2117,-0.2119,0,0,0,0,0,0,0,0,0,0,0,0,0,-0.1847,-0.1785,-0.1905,-0.1943,-0.1948,-0.1991,-0.1992,-0.1994,-0.2042,-0.2042,-0.2043,-0.2043,-0.2115,-0.2117,-0.212,-0.2125,0,0,-0.2127,-0.2128,0,0,0,0,0,0,0,0,-0.1844,-0.1852,-0.1936,-0.1941,-0.1946,-0.2008,-0.1976,-0.2038,-0.2042,-0.2004,-0.2043,-0.2043,-0.2079,-0.2085,-0.2098,-0.2129,-0.2132,-0.2127,-0.2129,-0.213,-0.2131,0,0,0,0,0,0,0,-0.1839,-0.1848,-0.1938,-0.1938,-0.1943,-0.1956,-0.1966,-0.1988,-0.2036,-0.2007,-0.2012,-0.2024,-0.2082,-0.2095,-0.21,-0.2133,-0.2127,-0.2129,-0.2131,-0.2132,-0.2256,-0.2258,0,0,0,0,0,0,-0.1832,-0.1844,-0.1935,-0.194,-0.1897,-0.1958,-0.1969,-0.1986,-0.2037,-0.2045,-0.2023,-0.2026,-0.2091,-0.2097,-0.2102,-0.2185,-0.213,-0.2132,-0.2134,-0.2254,-0.2256,-0.2258,0,0,0,0,0,0,-0.1829,-0.1839,-0.1932,-0.1895,-0.1908,-0.196,-0.1979,-0.1988,-0.2033,-0.2049,-0.2057,-0.2064,-0.2091,-0.2099,-0.2155,-0.2185,-0.2133,-0.2136,-0.2252,-0.2255,-0.2257,-0.2303,0,0,0,0,0,0,-0.1825,-0.1837,-0.1863,-0.1895,-0.191,-0.1979,-0.1979,-0.1989,-0.2039,-0.2044,-0.2086,-0.2091,-0.2092,-0.2152,-0.2158,-0.2188,-0.2138,-0.225,-0.2253,-0.2257,-0.2299,-0.2307,-0.2314,0,0,0,0,0,-0.182,-0.1848,-0.1863,-0.1875,-0.1938,-0.198,-0.199,-0.2026,-0.204,-0.2068,-0.21,-0.2092,-0.2177,-0.2156,-0.2162,-0.2193,-0.2248,-0.2252,-0.2256,-0.2296,-0.2305,-0.2313,0,0,0,0,0,0,-0.181,-0.1857,-0.1874,-0.1917,-0.1956,-0.199,-0.2023,-0.2045,-0.2093,-0.2107,-0.2117,-0.2126,-0.2185,-0.2187,-0.2163,-0.224,-0.221,-0.2216,-0.2238,-0.2247,-0.2254,-0.2243,-0.214,0,0,0,0,0,-0.1818,-0.1853,-0.1895,-0.1932,-0.1954,-0.1995,-0.2023,-0.2049,-0.2088,-0.2111,-0.2142,-0.2173,-0.2202,-0.2224,-0.225,-0.2295,-0.227,-0.2319,-0.2326,-0.2332,-0.2329,-0.2326,-0.2332,-0.2272,-0.2272,-0.2272,0,0,-0.1825,-0.1856,-0.1877,-0.1933,-0.1967,-0.2008,-0.2014,-0.2067,-0.2108,-0.211,-0.2184,-0.2204,-0.2221,-0.2271,-0.2297,-0.228,-0.2336,-0.2338,-0.2342,-0.2336,-0.2331,-0.2336,-0.2341,-0.2275,-0.2274,-0.2274,0,0,-0.1844,-0.1884,-0.1917,-0.1955,-0.2014,-0.2039,-0.2062,-0.2118,-0.2153,-0.2217,-0.2227,-0.2267,-0.2322,-0.2333,-0.2344,-0.2408,-0.2375,-0.2424,-0.2451,-0.2449,-0.2453,-0.2456,-0.2422,-0.2422,-0.2426,-0.2427,-0.2427,0,-0.1852,-0.1898,-0.1934,-0.1976,-0.2012,-0.2057,-0.2101,-0.2141,-0.2211,-0.2239,-0.2251,-0.2328,-0.2346,-0.2386,-0.2411,-0.2422,-0.2406,-0.2414,-0.2455,-0.2458,-0.2461,-0.2425,-0.2425,-0.2429,-0.2429,-0.2429,-0.2428,0,-0.1884,-0.1937,-0.1962,-0.2027,-0.2071,-0.2119,-0.2174,-0.2226,-0.2273,-0.2305,-0.2372,-0.2397,-0.2434,-0.2452,-0.2453,-0.2488,-0.2465,-0.2463,-0.2426,-0.2469,-0.243,-0.2428,-0.2433,-0.2432,-0.2431,-0.2431,0,0,-0.1859,-0.1965,-0.1977,-0.2019,-0.2105,-0.214,-0.2213,-0.2278,-0.2321,-0.2386,-0.243,-0.2486,-0.2495,-0.2508,-0.2515,-0.2518,-0.2523,-0.2505,-0.2504,-0.2458,-0.2497,-0.2325,-0.2306,-0.2531,-0.2532,-0.2532,-0.2457,0,-0.1875,-0.1956,-0.2008,-0.2091,-0.2135,-0.2202,-0.2261,-0.2328,-0.2381,-0.2435,-0.2464,-0.2511,-0.2517,-0.2538,-0.2545,-0.2533,-0.2524,-0.2542,-0.2474,-0.2471,-0.2302,-0.23,-0.2533,-0.2456,-0.2455,-0.2455,-0.2455,0,-0.1879,-0.1938,-0.2022,-0.2124,-0.215,-0.2209,-0.2302,-0.2361,-0.2437,-0.2476,-0.2521,-0.2542,-0.2569,-0.2564,-0.2552,-0.2566,-0.2536,-0.2517,-0.2514,-0.2333,-0.2295,-0.2409,-0.2451,-0.2452,-0.2452,-0.2452,-0.2452,0,-0.1824,-0.1941,-0.201,-0.2048,-0.217,-0.2224,-0.2289,-0.2377,-0.2421,-0.2499,-0.2525,-0.2564,-0.2575,-0.2565,-0.2531,-0.255,-0.249,-0.2506,-0.2316,-0.2303,-0.2462,-0.2459,-0.2483,-0.2483,-0.2483,-0.2484,-0.2484,0,-0.1799,-0.1857,-0.1998,-0.2035,-0.2112,-0.2209,-0.2286,-0.2352,-0.2435,-0.2465,-0.2539,-0.2538,-0.2578,-0.2551,-0.2526,-0.2392,-0.2481,-0.2301,-0.2268,-0.2482,-0.2483,-0.2459,-0.2457,-0.2481,-0.2481,-0.2482,-0.2482,0,-0.1717,-0.1816,-0.1898,-0.2042,-0.2089,-0.2142,-0.2274,-0.2313,-0.2411,-0.2447,-0.247,-0.2517,-0.2465,-0.2465,-0.2424,-0.2349,-0.2268,-0.22,-0.2401,-0.2384,-0.2085,-0.2088,-0.1977,-0.197,-0.1964,-0.196,-0.1956,0,-0.1676,-0.1715,-0.1877,-0.1921,-0.1992,-0.2091,-0.2145,-0.2278,-0.231,-0.2402,-0.2389,-0.2385,-0.239,-0.2167,-0.2206,-0.211,-0.2092,-0.2042,-0.2087,-0.2052,-0.2032,-0.2044,-0.2053,-0.1946,-0.1945,-0.1943,-0.1942,0,-0.1586,-0.1662,-0.1728,-0.1816,-0.1894,-0.196,-0.2051,-0.2057,-0.2184,-0.2305,-0.2224,-0.2172,-0.2094,-0.2031,-0.1956,-0.1906,-0.2076,-0.1982,-0.1995,-0.2037,-0.2014,-0.2002,-0.2019,-0.1922,-0.1925,-0.1927,-0.1928,0,-0.1511,-0.1531,-0.1622,-0.1677,-0.1767,-0.1778,-0.1856,-0.1878,-0.1923,-0.2044,-0.2007,-0.2003,-0.206,-0.1922,-0.1863,-0.1782,-0.1767,-0.1728,-0.1754,-0.1777,-0.1746,-0.169,-0.1448,0,0,0,0,0,-0.1423,-0.1424,-0.1468,-0.1514,-0.1591,-0.163,-0.176,-0.184,-0.1976,-0.1862,-0.1929,-0.1848,-0.1739,-0.1742,-0.161,-0.1773,-0.1777,-0.1616,-0.1749,-0.1811,-0.1834,-0.1817,0,0,0,0,0,0,-0.1364,-0.1403,-0.1412,-0.1352,-0.1342,-0.1398,-0.1468,-0.1568,-0.1522,-0.1666,-0.1602,-0.1722,-0.163,-0.1752,-0.1556,-0.156,-0.1605,-0.1641,-0.1635,-0.1798,-0.1819,-0.1837,-0.1828,0,0,0,0,0]},{"header":{"parameterUnit":"m.s-1","parameterCategory":2,"la1":30.2991,"la2":30.254,"lo1":-89.0895,"lo2":-89.0444,"dy":0.0017,"dx":0.0017,"nx":28,"ny":28,"refTime":"2026-01-01T03:00:00:Z","depth":"4","parameterNumber":3,"parameterNumberName":"V-component_of_CURRENTS"},"data":[0,0,0,0,0,0,0,0,0,0,0,0,0,0,0,0,0,0,0,0,0,0,0,0,0,0,0,0,0,0,0,0,0,0,0,0,0,0,0,0,0,0,0,0,0,0,0,0,0,0,0,0,0,0,0,0,0,0,-0.0202,-0.0202,0,-0.0137,-0.0136,-0.0136,-0.0085,-0.0085,-0.0085,-0.0084,0.0021,0.0023,0.0026,0,0,0,0,0,0,0,0,0,0,0,0,0,-0.0244,-0.0244,-0.0202,-0.0202,-0.0201,-0.0137,-0.0136,-0.0135,-0.0086,-0.0085,-0.0085,-0.0084,0.002,0.0023,0.0026,0,0,0,0,0,0,0,0,0,0,0,0,0,-0.0207,-0.0244,-0.0202,-0.0169,-0.0166,-0.0138,-0.0136,-0.0135,-0.0086,-0.0085,-0.0084,-0.0084,0.0019,0.0023,0.0026,0.0037,0,0,0.0037,0.0039,0,0,0,0,0,0,0,0,-0.0209,-0.0205,-0.0175,-0.0171,-0.0167,-0.012,-0.0113,-0.0076,-0.0086,-0.0115,-0.0084,-0.0084,-0.0024,-0.0016,-0.0005,0.0042,0.0047,0.0038,0.004,0.0041,0.0043,0,0,0,0,0,0,0,-0.0212,-0.0207,-0.0175,-0.0174,-0.017,-0.0144,-0.0138,-0.0105,-0.0072,-0.0112,-0.0109,-0.0103,-0.0021,-0.0008,-0.0002,0.0048,0.0038,0.0041,0.0043,0.0045,0.012,0.012,0,0,0,0,0,0,-0.0224,-0.021,-0.0178,-0.0174,-0.0188,-0.0144,-0.0137,-0.0135,-0.0073,-0.0063,-0.0104,-0.0101,-0.0015,-0.0006,0.0002,0.0024,0.0041,0.0045,0.0047,0.012,0.012,0.012,0,0,0,0,0,0,-0.0226,-0.0222,-0.018,-0.0191,-0.0184,-0.0144,-0.0141,-0.0134,-0.0122,-0.0067,-0.0057,-0.01,-0.0014,-0.0003,0.0027,0.0028,0.0047,0.005,0.0121,0.012,0.012,0.0064,0,0,0,0,0,0,-0.0227,-0.0223,-0.0229,-0.0192,-0.0184,-0.0173,-0.0142,-0.0133,-0.012,-0.0116,-0.006,-0.005,-0.0013,0.0021,0.003,0.0034,0.0053,0.0121,0.0121,0.012,0.0066,0.0062,0.0059,0,0,0,0,0,-0.0229,-0.0241,-0.023,-0.0226,-0.0192,-0.0173,-0.0167,-0.0136,-0.012,-0.0122,-0.0083,-0.0051,0.0026,0.0023,0.0035,0.0039,0.0121,0.0121,0.012,0.0068,0.0063,0.0059,0,0,0,0,0,0,-0.0262,-0.0236,-0.0223,-0.0226,-0.0205,-0.0166,-0.0165,-0.0143,-0.0113,-0.0109,-0.0055,-0.0042,-0.0017,0.0016,0.0013,0.006,0.0079,0.0081,0.0036,0.0031,0.0028,0.002,0.0056,0,0,0,0,0,-0.0273,-0.0275,-0.0244,-0.0248,-0.0241,-0.0204,-0.0194,-0.0173,-0.0141,-0.0128,-0.0089,-0.0046,-0.001,0.0013,0.0046,0.0072,0.0113,0.0083,0.0079,0.0075,0.0076,0.0141,0.0143,0.0119,0.0119,0.0119,0,0,-0.0287,-0.0273,-0.0274,-0.0255,-0.0236,-0.0232,-0.0197,-0.0187,-0.0178,-0.0121,-0.0101,-0.0063,-0.0009,0.0019,0.0034,0.0049,0.0101,0.0075,0.0071,0.0074,0.0141,0.0143,0.0145,0.0118,0.0118,0.0118,0,0,-0.0318,-0.0305,-0.0317,-0.0304,-0.0284,-0.0259,-0.026,-0.0226,-0.0205,-0.0184,-0.0138,-0.0099,-0.0051,-0.0004,0.0025,0.002,0.0072,0.0027,0.001,0.0072,0.0075,0.0078,0.012,0.0127,0.0032,0.0032,0.0032,0,-0.0337,-0.0345,-0.0318,-0.0325,-0.0318,-0.0276,-0.0284,-0.0258,-0.0218,-0.0197,-0.0188,-0.0099,-0.0058,-0.0002,-0.0006,0.0013,0.0048,0.0022,0.0067,0.0071,0.0075,0.0118,0.0127,0.0029,0.0029,0.003,0.003,0,-0.0372,-0.0379,-0.0386,-0.0379,-0.0368,-0.037,-0.0332,-0.0316,-0.0288,-0.0252,-0.0203,-0.0143,-0.0085,-0.0067,-0.0039,0.0012,0.0026,0.0049,0.0078,0.0074,0.0119,0.013,0.0025,0.0026,0.0027,0.0028,0,0,-0.0411,-0.0412,-0.0415,-0.0421,-0.0397,-0.0392,-0.0376,-0.0343,-0.0325,-0.0278,-0.0244,-0.0178,-0.0137,-0.0101,-0.0051,0.0003,0.0054,0.003,0.0035,0.007,0.0178,0.0149,0.0157,0.0085,0.0087,0.0088,0.0194,0,-0.0447,-0.0479,-0.0462,-0.0483,-0.0493,-0.045,-0.0438,-0.04,-0.0356,-0.0314,-0.0234,-0.0189,-0.015,-0.0122,-0.0062,0.0024,0.008,0.0023,0.0179,0.0184,0.0157,0.0168,0.0094,0.0201,0.0204,0.0206,0.0207,0,-0.0484,-0.0501,-0.0536,-0.0533,-0.0532,-0.0537,-0.0502,-0.0483,-0.0407,-0.037,-0.03,-0.0236,-0.0149,-0.012,0.0035,-0.0006,0.0079,0.0147,0.0153,0.0154,0.0174,0.0211,0.0226,0.0224,0.0223,0.0222,0.0221,0,-0.0527,-0.0547,-0.058,-0.0582,-0.0573,-0.0577,-0.0565,-0.0506,-0.0483,-0.0404,-0.0373,-0.0259,-0.0202,-0.008,0.0055,0.0049,0.0222,0.0238,0.0296,0.0294,0.0314,0.0311,0.0354,0.0354,0.0354,0.0354,0.0353,0,-0.0565,-0.0591,-0.061,-0.0629,-0.0662,-0.0631,-0.0638,-0.0604,-0.0543,-0.0509,-0.0409,-0.0347,-0.0189,-0.007,0.0051,0.0197,0.0226,0.0295,0.0324,0.0286,0.0277,0.0321,0.0316,0.0358,0.0357,0.0356,0.0355,0,-0.0604,-0.0617,-0.0661,-0.0678,-0.0689,-0.0713,-0.0706,-0.0698,-0.0633,-0.0583,-0.0559,-0.041,-0.0255,-0.0096,0.0106,0.0185,0.0332,0.0382,0.0316,0.0339,0.0363,0.0354,0.0452,0.0452,0.0452,0.0452,0.0452,0,-0.0625,-0.0654,-0.0713,-0.0751,-0.0768,-0.0797,-0.0812,-0.076,-0.0738,-0.061,-0.0584,-0.0427,-0.0316,-0.0054,0.0107,0.0326,0.0357,0.0419,0.0401,0.0356,0.0376,0.0366,0.0357,0.0452,0.0452,0.0452,0.0452,0,-0.0662,-0.0692,-0.073,-0.0818,-0.0861,-0.0893,-0.0902,-0.0888,-0.0802,-0.0744,-0.0587,-0.0428,-0.0256,-0.0055,0.0107,0.027,0.0367,0.0419,0.0421,0.0404,0.0357,0.0374,0.0365,0.0452,0.0452,0.0452,0.0452,0,-0.0689,-0.0734,-0.0798,-0.0865,-0.0932,-0.0965,-0.0962,-0.0909,-0.0866,-0.0708,-0.0655,-0.0439,-0.0306,-0.0082,0.0078,0.0218,0.0254,0.0287,0.0295,0.0297,0.0214,0.013,0.0183,0,0,0,0,0,-0.0706,-0.0761,-0.0837,-0.091,-0.0978,-0.1007,-0.1007,-0.0981,-0.0894,-0.0794,-0.0715,-0.054,-0.0272,-0.0144,-0.001,0.0053,0.0251,0.0211,0.0286,0.0451,0.0451,0.0375,0,0,0,0,0,0,-0.072,-0.0799,-0.0839,-0.0931,-0.0984,-0.1042,-0.1043,-0.0986,-0.0911,-0.0803,-0.0658,-0.0532,-0.0279,-0.0355,-0.0015,0.0032,0.0092,0.0352,0.0354,0.045,0.0451,0.0451,0.0373,0,0,0,0,0]}]]